Weather History for Tacoma, WA

Change the Weather History Date:

Sunday, March 2, 2014

  Actual Average Record
Temperature  
Mean Temperature 45 °F -  
Max Temperature 50 °F 48 °F 64 °F (1990)
Min Temperature 40 °F 31 °F 17 °F (1989)
Degree Days  
Heating Degree Days 20    
Moisture  
Dew Point 46 °F    
Average Humidity 99    
Maximum Humidity 100    
Minimum Humidity 93    
Precipitation  
Precipitation 0.56 in - - ()
Sea Level Pressure  
Sea Level Pressure 29.65 in    
Wind  
Wind Speed 6 mph (South)    
Max Wind Speed 21 mph    
Max Gust Speed 25 mph    
Visibility 10 miles    
Events Rain    
Averages and records for this station are not official NWS values.
T = Trace of Precipitation, MM = Missing Value Source: NWS Daily Summary

Daily Weather History Graph

Daily Weather History Graph

Search for Another Location

Airport:

Trip Planner

Search our weather history database for the weather conditions in past years. The results will help you decide how hot, cold, wet, or windy it might be!

Date:

Astronomy

Mar. 02, 2014 Rise Set
Actual Time 6:47 AM PST 5:56 PM PST
Civil Twilight 6:17 AM PST 6:27 PM PST
Nautical Twilight 5:41 AM PST 7:02 PM PST
Astronomical Twilight 5:06 AM PST 7:38 PM PST
Moon 7:14 AM PST (3/2) 8:10 PM PST (3/2)
Length of Visible Light 12h 10m
Length of Day
11h 09m
Waxing Crescent, 3% of the Moon is Illuminated
Mar 2
Waxing Crescent
Mar 8
First Quarter
Mar 16
Full
Mar 23
Last Quarter
Mar 30
New

Hourly Weather History & Observations

Time (PST) Temp. Windchill Dew Point Humidity Pressure Visibility Wind Dir Wind Speed Gust Speed Precip Events Conditions
12:58 AM 43.5 °F - 42.4 °F 96% 29.72 in 10.0 mi South 2.3 mph - N/A   Overcast
1:13 AM 42.8 °F - 42.8 °F 100% 29.70 in 10.0 mi SSE 2.3 mph - N/A   Overcast
1:48 AM 42.8 °F - 42.8 °F 100% 29.70 in 10.0 mi South 2.3 mph - N/A   Overcast
1:58 AM 43.5 °F - 43.0 °F 98% 29.72 in 10.0 mi SSE 2.3 mph - N/A   Overcast
2:03 AM 44.6 °F - 42.8 °F 93% 29.70 in 10.0 mi SSE 2.3 mph - N/A   Overcast
2:58 AM 43.5 °F 40.1 °F 43.3 °F 99% 29.72 in 10.0 mi SSW 5.8 mph - N/A   Overcast
3:08 AM 44.6 °F 41.4 °F 44.6 °F 100% 29.70 in 10.0 mi SW 5.8 mph - N/A   Overcast
3:13 AM 44.6 °F 42.2 °F 44.6 °F 100% 29.69 in 10.0 mi SW 4.6 mph - N/A   Overcast
3:58 AM 45.1 °F 42.8 °F 43.7 °F 95% 29.72 in 10.0 mi SW 4.6 mph - N/A   Overcast
4:33 AM 44.6 °F 43.1 °F 44.6 °F 100% 29.70 in 10.0 mi SW 3.5 mph - N/A   Overcast
4:42 AM 44.6 °F 41.4 °F 44.6 °F 100% 29.70 in 10.0 mi South 5.8 mph - N/A   Overcast
4:58 AM 43.9 °F 41.3 °F 43.5 °F 99% 29.72 in 8.0 mi SSE 4.6 mph - N/A   Overcast
5:00 AM 42.8 °F 40.1 °F 42.8 °F 100% 29.70 in 8.0 mi SSE 4.6 mph - N/A   Overcast
5:20 AM 42.8 °F 41.1 °F 42.8 °F 100% 29.69 in 10.0 mi South 3.5 mph - N/A Rain Light Rain
5:25 AM 42.8 °F - 42.8 °F 100% 29.69 in 10.0 mi SSE 2.3 mph - N/A Rain Light Rain
5:34 AM 42.8 °F 41.1 °F 42.8 °F 100% 29.69 in 10.0 mi SE 3.5 mph - N/A   Overcast
5:42 AM 42.8 °F - 42.8 °F 100% 29.69 in 10.0 mi Variable 2.3 mph - N/A Rain Light Rain
5:52 AM 42.8 °F - 42.8 °F 100% 29.69 in 10.0 mi Variable 1.2 mph - N/A   Overcast
5:58 AM 42.4 °F - 42.1 °F 99% 29.70 in 10.0 mi Variable 2.3 mph - 0.00 in   Overcast
6:33 AM 41.0 °F - 41.0 °F 100% 29.67 in 10.0 mi East 2.3 mph - N/A Rain Light Rain
6:39 AM 41.0 °F - 41.0 °F 100% 29.67 in 10.0 mi Calm Calm - N/A Rain Light Rain
6:58 AM 40.6 °F - 40.5 °F 99% 29.69 in 10.0 mi NE 2.3 mph - 0.01 in Rain Light Rain
7:03 AM 41.0 °F 39.0 °F 41.0 °F 100% 29.67 in 10.0 mi ENE 3.5 mph - N/A Rain Light Rain
7:23 AM 41.0 °F - 41.0 °F 100% 29.67 in 10.0 mi ESE 2.3 mph - N/A Rain Light Rain
7:30 AM 41.0 °F - 41.0 °F 100% 29.67 in 10.0 mi East 2.3 mph - N/A   Overcast
7:58 AM 40.8 °F - 40.6 °F 99% 29.69 in 10.0 mi Calm Calm - 0.00 in   Overcast
8:31 AM 41.0 °F - 41.0 °F 100% 29.67 in 10.0 mi Calm Calm - N/A   Overcast
8:44 AM 41.0 °F - 41.0 °F 100% 29.67 in 10.0 mi Calm Calm - N/A Rain Light Rain
8:58 AM 41.4 °F - 41.0 °F 99% 29.68 in 10.0 mi Variable 2.3 mph - 0.01 in Rain Light Rain
9:18 AM 41.0 °F 39.0 °F 41.0 °F 100% 29.66 in 10.0 mi East 3.5 mph - N/A   Overcast
9:23 AM 41.0 °F 39.0 °F 41.0 °F 100% 29.66 in 10.0 mi East 3.5 mph - N/A   Overcast
9:36 AM 41.0 °F - 41.0 °F 100% 29.65 in 10.0 mi East 1.2 mph - N/A Rain Light Rain
9:48 AM 41.0 °F - 41.0 °F 100% 29.65 in 10.0 mi Calm Calm - N/A Rain Light Rain
9:58 AM 41.7 °F - 41.4 °F 99% 29.68 in 10.0 mi East 2.3 mph - 0.00 in Rain Light Rain
10:08 AM 41.0 °F 39.0 °F 41.0 °F 100% 29.65 in 6.0 mi ESE 3.5 mph - N/A Rain Light Rain
10:18 AM 41.0 °F - 41.0 °F 100% 29.65 in 6.0 mi Variable 1.2 mph - N/A Rain Light Rain
10:23 AM 41.0 °F - 41.0 °F 100% 29.65 in 6.0 mi Variable 2.3 mph - N/A Rain Light Rain
10:33 AM 41.0 °F 39.0 °F 41.0 °F 100% 29.64 in 6.0 mi ESE 3.5 mph - N/A Rain Light Rain
10:38 AM 42.8 °F 40.1 °F 41.0 °F 93% 29.64 in 6.0 mi ESE 4.6 mph - N/A Rain Light Rain
10:58 AM 42.1 °F - 41.9 °F 99% 29.66 in 6.0 mi Variable 2.3 mph - 0.07 in   Overcast
11:58 AM 44.1 °F 42.5 °F 44.1 °F 100% 29.64 in 7.0 mi Variable 3.5 mph - 0.07 in Rain Light Rain
12:48 PM 46.4 °F 42.9 °F 46.4 °F 100% 29.61 in 10.0 mi South 6.9 mph - N/A Rain Light Rain
12:53 PM 46.4 °F 42.4 °F 46.4 °F 100% 29.61 in 10.0 mi South 8.1 mph - N/A Rain Light Rain
12:58 PM 47.3 °F - 46.9 °F 99% 29.63 in 10.0 mi South 6.9 mph - 0.06 in Rain Light Rain
1:43 PM 48.2 °F - 48.2 °F 100% 29.59 in 10.0 mi South 5.8 mph - N/A   Overcast
1:58 PM 48.4 °F - 48.2 °F 99% 29.61 in 10.0 mi South 6.9 mph - 0.01 in   Overcast
2:01 PM 48.2 °F - 48.2 °F 100% 29.59 in 10.0 mi South 8.1 mph - N/A Rain Light Rain
2:16 PM 48.2 °F - 48.2 °F 100% 29.59 in 10.0 mi South 6.9 mph - N/A   Overcast
2:32 PM 50.0 °F - 50.0 °F 100% 29.58 in 10.0 mi South 9.2 mph - N/A Rain Light Rain
2:58 PM 49.8 °F - 49.5 °F 99% 29.60 in 10.0 mi SSW 8.1 mph - 0.02 in Rain Light Rain
3:27 PM 50.0 °F - 50.0 °F 100% 29.56 in 10.0 mi SE 3.5 mph - N/A   Overcast
3:36 PM 50.0 °F - 50.0 °F 100% 29.56 in 10.0 mi SSE 4.6 mph - N/A Rain Light Rain
3:58 PM 49.5 °F - 49.3 °F 99% 29.57 in 10.0 mi SSE 4.6 mph - 0.02 in Rain Light Rain
4:34 PM 48.2 °F - 48.2 °F 100% 29.54 in 10.0 mi South 3.5 mph - N/A   Overcast
4:58 PM 48.6 °F - 48.4 °F 99% 29.56 in 10.0 mi South 4.6 mph - 0.05 in   Overcast
5:49 PM 50.0 °F - 48.2 °F 94% 29.54 in 10.0 mi South 6.9 mph - N/A Rain Light Rain
5:58 PM 49.3 °F - 49.1 °F 99% 29.57 in 10.0 mi South 9.2 mph - 0.00 in Rain Light Rain
6:04 PM 50.0 °F - 50.0 °F 100% 29.55 in 8.0 mi SSW 10.4 mph - N/A Rain Rain
6:26 PM 50.0 °F - 50.0 °F 100% 29.55 in 10.0 mi SSW 12.7 mph 20.7 mph N/A   Overcast
6:32 PM 50.0 °F - 50.0 °F 100% 29.55 in 10.0 mi SSW 17.3 mph - N/A Rain Light Rain
6:58 PM 50.4 °F - 49.6 °F 97% 29.57 in 10.0 mi SSW 16.1 mph - 0.04 in Rain Light Rain
7:00 PM 50.0 °F - 50.0 °F 100% 29.56 in 10.0 mi SSW 15.0 mph - N/A   Mostly Cloudy
7:06 PM 50.0 °F - 50.0 °F 100% 29.56 in 10.0 mi SSW 13.8 mph - N/A Rain Light Rain
7:35 PM 50.0 °F - 50.0 °F 100% 29.56 in 10.0 mi South 18.4 mph - N/A   Overcast
7:44 PM 50.0 °F - 50.0 °F 100% 29.56 in 10.0 mi SSW 18.4 mph 24.2 mph N/A Rain Light Rain
7:58 PM 49.6 °F - 49.5 °F 99% 29.59 in 10.0 mi SSW 16.1 mph 23.0 mph 0.03 in Rain Light Rain
8:13 PM 50.0 °F - 50.0 °F 100% 29.58 in 10.0 mi SSW 18.4 mph 23.0 mph N/A Rain Light Rain
8:38 PM 50.0 °F - 50.0 °F 100% 29.60 in 10.0 mi SSW 15.0 mph 23.0 mph N/A   Overcast
8:40 PM 50.0 °F - 50.0 °F 100% 29.60 in 10.0 mi SSW 15.0 mph 23.0 mph N/A Rain Light Rain
8:53 PM 50.0 °F - 50.0 °F 100% 29.61 in 10.0 mi SSW 15.0 mph - N/A   Overcast
8:58 PM 49.5 °F - 49.3 °F 99% 29.63 in 10.0 mi SSW 15.0 mph - 0.02 in   Overcast
8:59 PM 50.0 °F - 50.0 °F 100% 29.61 in 10.0 mi SSW 17.3 mph 25.3 mph N/A Rain Light Rain
9:00 PM 50.0 °F - 50.0 °F 100% 29.61 in 10.0 mi SSW 17.3 mph 25.3 mph N/A Rain Light Rain
9:05 PM 50.0 °F - 50.0 °F 100% 29.61 in 10.0 mi SSW 17.3 mph 25.3 mph N/A Rain Light Rain
9:08 PM 50.0 °F - 50.0 °F 100% 29.62 in 10.0 mi SSW 17.3 mph 25.3 mph N/A   Overcast
9:13 PM 50.0 °F - 50.0 °F 100% 29.62 in 10.0 mi SSW 20.7 mph - N/A   Overcast
9:23 PM 50.0 °F - 50.0 °F 100% 29.64 in 10.0 mi SSW 19.6 mph 25.3 mph N/A Rain Heavy Rain
9:25 PM 50.0 °F - 50.0 °F 100% 29.65 in 10.0 mi WSW 16.1 mph 25.3 mph N/A Rain Heavy Rain
9:35 PM 48.2 °F - 48.2 °F 100% 29.66 in 3.0 mi West 11.5 mph 24.2 mph N/A Rain Rain
9:40 PM 48.2 °F - 48.2 °F 100% 29.67 in 5.0 mi WSW 12.7 mph 24.2 mph N/A Rain Light Rain
9:55 PM 48.2 °F - 48.2 °F 100% 29.68 in 10.0 mi SW 12.7 mph 18.4 mph N/A Rain Light Rain
9:58 PM 48.2 °F - 48.2 °F 100% 29.71 in 10.0 mi SW 13.8 mph 18.4 mph 0.12 in Rain Light Rain
10:08 PM 48.2 °F - 48.2 °F 100% 29.69 in 10.0 mi WSW 16.1 mph 23.0 mph N/A Rain Light Rain
10:18 PM 48.2 °F - 46.4 °F 93% 29.70 in 10.0 mi WSW 12.7 mph - N/A Rain Light Rain
10:33 PM 48.2 °F - 46.4 °F 93% 29.72 in 10.0 mi SW 8.1 mph - N/A   Overcast
10:43 PM 48.2 °F - 46.4 °F 93% 29.72 in 10.0 mi SW 12.7 mph - N/A   Overcast
10:58 PM 47.1 °F - 46.9 °F 99% 29.75 in 10.0 mi SW 13.8 mph 20.7 mph 0.03 in   Overcast
11:00 PM 46.4 °F 40.1 °F 46.4 °F 100% 29.73 in 10.0 mi SW 15.0 mph 20.7 mph N/A Rain Light Rain
11:10 PM 46.4 °F 40.4 °F 46.4 °F 100% 29.74 in 10.0 mi SW 13.8 mph - N/A   Overcast
11:58 PM 46.6 °F - 46.2 °F 99% 29.78 in 10.0 mi SSW 9.2 mph - 0.00 in   Overcast